^^
Meteo Knjazevac Station Historical Data
Daily Summary for March 14, 2021 Units:  Metric    English   Both
Daily Weekly Monthly Yearly Custom
  High: Low: Average:
Temperature: 13.7 °C 9.6 °C 11.4 °C
Dew Point: 8 °C 6.5 °C 7.3 °C
Humidity: 81% 68% 76%
Wind Speed: 3.2km/h 0km/h 1.8km/h
Wind Gust: 8km/h - -
Wind- - WNW
Pressure: 1019.2 hPa 1018.5 hPa -
Precipitation: 0 mm    
Historical Graphs
 
 
Tabular Data for March 14, 2021
Time Temperature Dew Point Pressure Wind Wind Speed Wind Gust Humidity Rainfall Rate (Hourly) solar Conditions
00:00 13.7 °C 7.9 °C 1018.5 hPa NW 1.6 km/h 4.8 km/h 68% 0 mm 0 W/m2
00:10 13.6 °C 8 °C 1018.5 hPa WNW 1.6 km/h 4.8 km/h 69% 0 mm 0 W/m2
00:20 13.4 °C 7.8 °C 1018.5 hPa WNW 1.6 km/h 3.2 km/h 69% 0 mm 0 W/m2
00:30 13.1 °C 7.7 °C 1018.5 hPa NW 1.6 km/h 3.2 km/h 70% 0 mm 0 W/m2
00:40 12.8 °C 7.4 °C 1018.5 hPa Calm   4.8 km/h 70% 0 mm 0 W/m2
00:50 12.6 °C 7.7 °C 1018.5 hPa West 1.6 km/h 4.8 km/h 72% 0 mm 0 W/m2
01:00 12.4 °C 7.8 °C 1018.5 hPa West 3.2 km/h 6.4 km/h 73% 0 mm 0 W/m2
01:10 12.4 °C 7.7 °C 1018.5 hPa West 1.6 km/h 6.4 km/h 73% 0 mm 0 W/m2
01:20 12.2 °C 7.5 °C 1018.5 hPa WNW 1.6 km/h 4.8 km/h 73% 0 mm 0 W/m2
01:30 12.1 °C 7.6 °C 1018.5 hPa NW 1.6 km/h 4.8 km/h 74% 0 mm 0 W/m2
01:40 11.9 °C 7.4 °C 1018.5 hPa NW 1.6 km/h 6.4 km/h 74% 0 mm 0 W/m2
01:50 11.7 °C 7.4 °C 1018.5 hPa Calm   4.8 km/h 75% 0 mm 0 W/m2
02:00 11.4 °C 7.1 °C 1018.5 hPa Calm   4.8 km/h 75% 0 mm 0 W/m2
02:10 11.1 °C 7.2 °C 1018.5 hPa West 3.2 km/h 8 km/h 77% 0 mm 0 W/m2
02:20 11 °C 7.1 °C 1018.5 hPa WNW 1.6 km/h 6.4 km/h 77% 0 mm 0 W/m2
02:30 10.9 °C 7.2 °C 1018.5 hPa WNW 1.6 km/h 4.8 km/h 78% 0 mm 0 W/m2
02:40 10.9 °C 7.2 °C 1018.5 hPa WNW 3.2 km/h 8 km/h 78% 0 mm 0 W/m2
02:50 10.9 °C 7.2 °C 1018.5 hPa WNW 1.6 km/h 6.4 km/h 78% 0 mm 0 W/m2
03:00 10.8 °C 7.3 °C 1018.5 hPa WNW 1.6 km/h 6.4 km/h 79% 0 mm 0 W/m2
03:10 10.5 °C 7 °C 1018.8 hPa WNW 1.6 km/h 3.2 km/h 79% 0 mm 0 W/m2
03:20 10.4 °C 6.9 °C 1018.8 hPa WNW 1.6 km/h 4.8 km/h 79% 0 mm 0 W/m2
03:30 10.2 °C 6.9 °C 1018.8 hPa WNW 3.2 km/h 4.8 km/h 80% 0 mm 0 W/m2
03:40 10.2 °C 6.9 °C 1018.8 hPa WNW 1.6 km/h 6.4 km/h 80% 0 mm 0 W/m2
03:50 10 °C 6.7 °C 1018.8 hPa NW 1.6 km/h 3.2 km/h 80% 0 mm 0 W/m2
04:00 9.9 °C 6.8 °C 1018.8 hPa WNW 3.2 km/h 4.8 km/h 81% 0 mm 0 W/m2
04:10 9.8 °C 6.7 °C 1018.8 hPa West 3.2 km/h 4.8 km/h 81% 0 mm 0 W/m2
04:20 9.8 °C 6.7 °C 1019.2 hPa WNW 1.6 km/h 4.8 km/h 81% 0 mm 0 W/m2
04:30 9.6 °C 6.5 °C 1018.8 hPa Calm   3.2 km/h 81% 0 mm 0 W/m2
Knjazevac, Serbia
Compliments of Weather Underground - 2 mb